Showing default

JASON 3, 41240

Orbit data source: Space-Track

JASON 3, 41240 is an American payload satellite in LEO that was launched on Sun, 17 Jan 2016 UTC via an FALCON 9 launch vehicle from the Air Force Western Test Range (AFWTR). Payloads include a variety of satellites, spacecraft, and rockets equipped with specific instruments for various scientific and technological missions. These include communications satellites like Starlink; space stations such as the ISS; scientific satellites like the Hubble; Earth observation satellites from companies like Planet Labs, Umbra, and HawkEye 360; GPS; miniature CubeSats for education and research; and military/defense satellites.

Loading next visibility...
JASON 3 details
Identifier
41240, 2016-002A
Orbit
LEO
Last TLE update7 hours ago
Origin
Flag of USCNES/NOAA (US)
ManufacturerThales Alenia
MissionOperational Civil Sci/Met
Bus & MotorPROTEUS, AOCS
Mass553 kg wet, 525 kg dry
Launch date (UTC)
2016-01-17 (9 years ago)
Launch vehicle
FALCON 9
Launch site
Air Force Western Test Range (AFWTR)
Object type
Payload
Rocket body
Debris
Shape & HBRBox + 2 Pan, 9.7 m
Radar Cross Section12.823 m², Large (>1 m²)

Expand to show TLE details & history

TLE from 7 hours ago
0 JASON 3
1 41240U 16002A   24339.08216854  .00000014  00000-0  32405-3 0  9997
2 41240  66.0409 218.4738 0007531 268.6709  91.3443 12.80929196415400
Epoch: 2024-12-04T01:58Z
Definitive object data (Epoch: 2024-12-04T01:58:19.361Z)
Latitude-0.00008°
Longitude115.51066°
Altitude1,339.787 km
Speed7.188 km/s
True Right ascension14h 33m 53s
True Declination0° 00' 00"
Sunlit
Object was in daylight at TLE epoch
Visualization TLE readout
Latitude-39.85009°
Longitude-43.41955°
Altitude1,347.843 km
Speed7.186 km/s
Apparent Right ascension00h 17m 25s
Apparent Declination-66° 44' 26"
Sunlit
Object is in daylight
Visualization observer readout
Local Sidereal Time06:39:50
Azimuth210.029° SW
Elevation-38.249°
Doppler factor1
Orbital elements
Apogee altitude1,342.109 km
Perigee altitude1,330.489 km
Semi-major axis7,714.436 km
Eccentricity0.0007531
Inclination66.0409°
RAAN218.4738°
Arg. of periapsis268.6709°
True anomaly91.43057°
Mean anomaly91.3443°
Eccentric anomaly91.38744°
Mean motion3.20322 °/min
BSTAR0.00032405
Orbital period112.39 mins
Loading maneuver chart data...
Loading historical data...
Loading historical data...
Loading historical data...
Loading historical data...
Loading historical data...
Loading historical data...
Loading historical data...
Other satellites on launch #2 in the year 2016 (2016-01-17 UTC)

JASON 3 Visibility forecast

Observer location: undefined°, undefined

Span
Click to sort rows by Start time (UTC) header in descending order
Start Az.
Max El. time (UTC)
Max El. Az.
Max El.
End time (UTC)
End Az.
14 mins2024-12-04 17:03:39.877Z179.269° S2024-12-04 17:10:39.877Z105.432° ESE36.561°2024-12-04 17:17:39.877Z41.597° NE
13 mins2024-12-04 19:00:39.877Z248.969° W2024-12-04 19:06:39.877Z315.305° NNW33.59°2024-12-04 19:13:39.877Z18.846° NNE
5 mins2024-12-04 21:02:39.877Z319.402° NNW2024-12-04 21:04:39.877Z334.751° NNW13.09°2024-12-04 21:07:39.877Z357.736° N
11 mins2024-12-05 01:00:39.877Z357.148° N2024-12-05 01:05:39.877Z43.736° NE22.819°2024-12-05 01:11:39.877Z91.719° ESE
14 mins2024-12-05 02:55:39.877Z329.528° NNW2024-12-05 03:02:39.877Z160.701° S44.755°2024-12-05 03:09:39.877Z152.833° SSE
8 mins2024-12-05 04:53:39.877Z286.595° WNW2024-12-05 04:56:39.877Z262.286° W16.52°2024-12-05 05:01:39.877Z223.175° SW
|